Wichita, KS

6:54 AM CST on February 14, 2016 (GMT -0600)
Wichita Eisenhower National Airport

Weather History for KICT - June, 2013

Change the Weather History Date:

Thursday, June 20, 2013

  Actual Average Record
Temperature  
Mean Temperature 83 °F 77 °F  
Max Temperature 94 °F 88 °F 108 °F (1998)
Min Temperature 72 °F 66 °F 50 °F (1946)
Degree Days  
Heating Degree Days 0 0  
Month to date heating degree days 3 3  
Since 1 June heating degree days 3 3  
Since 1 July heating degree days 4477 4591  
Cooling Degree Days 18 12  
Month to date cooling degree days 211 191  
Year to date cooling degree days 349 327  
Since 1 June cooling degree days 211 191  
Growing Degree Days 32 (Base 50)    
Moisture  
Dew Point 71 °F    
Average Humidity 71    
Maximum Humidity 93    
Minimum Humidity 49    
Precipitation  
Precipitation 0.00 in 0.18 in 1.81 in (2009)
Month to date precipitation 1.13 3.59  
Year to date precipitation 15.15 15.45  
Snow  
Snow 0.00 in 0.00 in T in (2011)
Month to date snowfall 0.0 0.0  
Since 1 June snowfall 0.0 0.0  
Since 1 July snowfall 30.0 14.9  
Snow Depth 0.00 in    
Sea Level Pressure  
Sea Level Pressure 29.86 in    
Wind  
Wind Speed 20 mph (SSE)    
Max Wind Speed 31 mph    
Max Gust Speed 40 mph    
Visibility 10 miles    
Events      
T = Trace of Precipitation, MM = Missing Value Source: NWS Daily Summary

Daily Weather History Graph

Daily Weather History Graph

Search for Another Location

Airport or City:

Trip Planner

Search our weather history database for the weather conditions in past years. The results will help you decide how hot, cold, wet, or windy it might be!

Date:

Astronomy

Jun. 20, 2013 Rise Set
Actual Time 6:08 AM CDT 8:54 PM CDT
Civil Twilight 5:37 AM CDT 9:25 PM CDT
Nautical Twilight 4:57 AM CDT 10:04 PM CDT
Astronomical Twilight 4:13 AM CDT 10:49 PM CDT
Moon 6:00 PM CDT (6/20) 3:33 AM CDT (6/20)
Length of Visible Light 15h 48m
Length of Day
14h 46m
Waxing Gibbous, 89% of the Moon is Illuminated
Jun 20
Waxing Gibbous
Jun 23
Full
Jun 29
Last Quarter
Jul 8
New
Jul 15
First Quarter

Hourly Weather History & Observations

Time (CDT) Temp. Heat Index Dew Point Humidity Pressure Visibility Wind Dir Wind Speed Gust Speed Precip Events Conditions
12:53 AM 75.0 °F - 69.1 °F 82% 29.91 in 10.0 mi SSE 10.4 mph - N/A   Mostly Cloudy
1:53 AM 75.0 °F - 70.0 °F 84% 29.90 in 10.0 mi SSE 11.5 mph - N/A   Mostly Cloudy
2:53 AM 73.9 °F - 69.1 °F 85% 29.88 in 10.0 mi SSE 11.5 mph - N/A   Mostly Cloudy
3:53 AM 73.0 °F - 70.0 °F 90% 29.88 in 10.0 mi SSE 12.7 mph - N/A   Mostly Cloudy
4:53 AM 72.0 °F - 70.0 °F 93% 29.88 in 10.0 mi SSE 10.4 mph - N/A   Mostly Cloudy
5:53 AM 72.0 °F - 70.0 °F 93% 29.89 in 10.0 mi SSE 12.7 mph - N/A   Mostly Cloudy
6:53 AM 72.0 °F - 70.0 °F 93% 29.88 in 10.0 mi SSE 16.1 mph - N/A   Mostly Cloudy
7:53 AM 73.9 °F - 71.1 °F 91% 29.90 in 10.0 mi South 18.4 mph 24.2 mph N/A   Mostly Cloudy
8:53 AM 78.1 °F - 72.0 °F 81% 29.90 in 10.0 mi South 19.6 mph 27.6 mph N/A   Mostly Cloudy
9:53 AM 81.0 °F 85.8 °F 73.0 °F 77% 29.90 in 10.0 mi South 18.4 mph 31.1 mph N/A   Mostly Cloudy
10:53 AM 84.0 °F 90.2 °F 73.0 °F 69% 29.88 in 10.0 mi SSE 19.6 mph 25.3 mph N/A   Mostly Cloudy
11:53 AM 87.1 °F 94.5 °F 73.0 °F 63% 29.86 in 10.0 mi South 21.9 mph 29.9 mph N/A   Overcast
12:53 PM 90.0 °F 96.9 °F 72.0 °F 55% 29.84 in 10.0 mi South 24.2 mph 33.4 mph N/A   Overcast
1:53 PM 91.0 °F 98.2 °F 72.0 °F 53% 29.82 in 10.0 mi SSE 27.6 mph 35.7 mph N/A   Overcast
2:53 PM 93.0 °F 100.1 °F 71.1 °F 49% 29.81 in 10.0 mi SSE 26.5 mph 36.8 mph N/A   Overcast
3:53 PM 93.9 °F 102.1 °F 72.0 °F 49% 29.81 in 10.0 mi South 27.6 mph 33.4 mph N/A   Scattered Clouds
4:53 PM 93.9 °F 100.8 °F 71.1 °F 47% 29.81 in 10.0 mi South 26.5 mph 34.5 mph N/A   Scattered Clouds
5:53 PM 93.0 °F 100.1 °F 71.1 °F 49% 29.79 in 10.0 mi South 24.2 mph 33.4 mph N/A   Scattered Clouds
6:53 PM 91.0 °F 96.6 °F 70.0 °F 50% 29.81 in 10.0 mi South 23.0 mph 33.4 mph N/A   Scattered Clouds
7:53 PM 89.1 °F 95.0 °F 71.1 °F 55% 29.80 in 10.0 mi South 24.2 mph 31.1 mph N/A   Scattered Clouds
8:53 PM 87.1 °F 92.0 °F 70.0 °F 57% 29.82 in 10.0 mi South 21.9 mph 28.8 mph N/A   Scattered Clouds
9:53 PM 84.9 °F 89.4 °F 70.0 °F 61% 29.85 in 10.0 mi South 21.9 mph - N/A   Scattered Clouds
10:53 PM 82.9 °F 87.5 °F 71.1 °F 67% 29.87 in 10.0 mi South 20.7 mph 27.6 mph N/A   Scattered Clouds
11:53 PM 81.0 °F 84.1 °F 69.1 °F 67% 29.88 in 10.0 mi South 19.6 mph 27.6 mph N/A   Mostly Cloudy